User: anonymous   Login
Location: Caltech
(34.1382°N, 118.1253°W)
Time: 04:30:24
(UTC-08:00)
Language:

Cosmos 1484 Rocket - Orbit

View from above orbital plane
View from above orbital plane
View from above satellite
View from above satellite

Ground track
Ground track

The orbit data is extracted from the following two-line orbital elements,

1 14208U 83075B   15059.19417698  .00001899  00000-0  12376-3 0  9992
2 14208 097.3968 091.7847 0042423 143.0743 217.3420 15.08352164720779
Epoch (UTC): 28 February 2015 04:39:36
Eccentricity: 0.0042423
inclination: 97.3968°
perigee height: 512 km
apogee height: 570 km
right ascension of ascending node: 91.7847°
argument of perigee: 143.0743°
revolutions per day: 15.08352164
mean anomaly at epoch: 217.3420°
orbit number at epoch: 72077

The dashed part of the orbit path shows where the satellite is in the earth's shadow,  

DLR